UB3APB-W3 Weather Reports


time (UTC)temp
C
wind
direction
speed
KPH
gust
KPH
rain 1hr
cm
rain 24hr
cm
rain mn
cm
humidity
%
barometer
mb
20260504023413 7 0.0 0.0 0.00 0.00 0.00 10.2
20260504013226 6 0.0 0.0 0.00 0.00 0.00 10.2
20260504012715 6 0.0 0.0 0.00 0.00 0.00 10.2
20260504012212 6 0.0 0.0 0.00 0.00 0.00 10.2
20260504011703 6 0.0 0.0 0.00 0.00 0.00 10.3
20260504001243 7 0.0 0.0 0.00 0.00 0.00 10.6
20260504000736 7 0.0 0.0 0.00 0.00 0.00 10.6
20260504000230 7 0.0 0.0 0.00 0.00 0.00 10.6
20260503235722 7 0.0 0.0 0.00 0.00 0.00 10.7
20260503235216 7 0.0 0.0 0.00 0.00 0.00 10.7
20260503225034 7 0.0 0.0 0.00 0.00 0.00 10.9
20260503224021 7 0.0 0.0 0.00 0.00 0.00 10.9
20260503223514 7 0.0 0.0 0.00 0.00 0.00 10.9
20260503213333 8 0.0 0.0 0.00 0.00 0.00 11.0
20260503212319 8 0.0 0.0 0.00 0.00 0.00 11.0
20260503211813 8 0.0 0.0 0.00 0.00 0.00 11.0
20260503201644 9 0.0 0.0 0.00 0.00 0.00 10.3
20260503201138 9 0.0 0.0 0.00 0.00 0.00 10.2
20260503200633 9 0.0 0.0 0.00 0.00 0.00 10.1
20260503200121 9 0.0 0.0 0.00 0.00 0.00 10.1
20260503195614 9 0.0 0.0 0.00 0.00 0.00 9.9
20260503195113 9 0.0 0.0 0.00 0.00 0.00 9.9
20260503184935 11 0.0 0.0 0.00 0.00 0.00 9.7
20260503184429 11 0.0 0.0 0.00 0.00 0.00 9.7
20260503183920 11 0.0 0.0 0.00 0.00 0.00 9.7
20260503173235 12 0.0 0.0 0.00 0.00 0.00 9.1
20260503172728 13 0.0 0.0 0.00 0.00 0.00 9.2
20260503171708 13 0.0 0.0 0.00 0.00 0.00 9.1
20260503160114 18 0.0 0.0 0.00 0.00 0.00 9.1
20260503120135 20 0.0 0.0 0.00 0.00 0.00 9.6
20260503081235 18 0.0 0.0 0.00 0.00 0.00 9.2
20260503080733 18 0.0 0.0 0.00 0.00 0.00 9.2
20260503080223 18 0.0 0.0 0.00 0.00 0.00 9.7
20260503053217 15 0.0 0.0 0.00 0.00 0.00 9.2
20260503052710 15 0.0 0.0 0.00 0.00 0.00 9.3
20260503052204 15 0.0 0.0 0.00 0.00 0.00 9.1
20260503051705 15 0.0 0.0 0.00 0.00 0.00 9.0
20260503041150 11 0.0 0.0 0.00 0.00 0.00 9.2
20260503040649 12 0.0 0.0 0.00 0.00 0.00 9.1
20260503040138 12 0.0 0.0 0.00 0.00 0.00 9.2
20260503035629 12 0.0 0.0 0.00 0.00 0.00 9.2
20260503035121 12 0.0 0.0 0.00 0.00 0.00 9.3
20260503024942 7 0.0 0.0 0.00 0.00 0.00 9.0
20260503024432 6 0.0 0.0 0.00 0.00 0.00 9.0
20260503023926 6 0.0 0.0 0.00 0.00 0.00 9.0